Location: Hains Lake
(37.8540°N, 99.8578°W)
Time: 11:01:56
(UTC+00:00)

Tiros 1 despin weight - Pass Details

Date: 21 April 2021
Orbit: 593 x 642 km, 48.2° (Epoch: 07 May)

Event Time Altitude Azimuth Distance (km) Brightness Sun altitude
Rises 13:49:34 0° 290° (WNW) 2,898 ? 21.4°
Reaches altitude 10° 13:52:21 10° 306° (NW) 1,982 ? 22.0°
Maximum altitude 13:55:54 22° 357° (N) 1,358 ? 22.7°
Drops below altitude 10° 13:59:24 10° 48° (NE) 1,958 ? 23.4°
Sets 14:02:08 0° 64° (ENE) 2,852 ? 23.9°
